When you browse on this site, cookies collect data to enhance your experience and personalize the content and advertising you see.
Visit our Privacy Policy to learn more. By continuing to use the site, you agree to this use of cookies and data.
  • In Portugal
  • List of Countries
  • For 7 days
  • Water Temperature
  • Weather Map
  • Weather Widgets
  • user-avatar
    Login

    Hourly Weather Bahmahi

    Today, 26 May, Tuesday

    Time Temperature Precipitation Wind Pressure Humidity
    00:00 +10°C° 0 mm 1 mps 664 mmHg 80%
    01:00 +9°C° 0 mm 2 mps 664 mmHg 79%
    02:00 +9°C° 0 mm 2 mps 664 mmHg 78%
    03:00 +9°C° 0 mm 2 mps 664 mmHg 78%
    04:00 +11°C° 0 mm 1 mps 665 mmHg 75%
    05:00 +12°C° 0 mm 1 mps 665 mmHg 71%
    06:00 +12°C° 0 mm 0 mps 666 mmHg 67%
    07:00 +14°C° 0 mm 1 mps 667 mmHg 64%
    08:00 +16°C° 0 mm 1 mps 667 mmHg 60%
    09:00 +18°C° 0 mm 2 mps 668 mmHg 56%
    10:00 +18°C° 0 mm 2 mps 668 mmHg 57%
    11:00 +19°C° 0 mm 3 mps 669 mmHg 58%
    12:00 +19°C° 0 mm 3 mps 669 mmHg 59%
    13:00 +19°C° 0 mm 3 mps 669 mmHg 61%
    14:00 +18°C° 0 mm 3 mps 669 mmHg 64%
    15:00 +17°C° 0 mm 2 mps 669 mmHg 66%
    16:00 +17°C° 0 mm 2 mps 669 mmHg 69%
    17:00 +18°C° 0 mm 1 mps 670 mmHg 71%
    18:00 +16°C° 0 mm 1 mps 670 mmHg 73%
    19:00 +15°C° 0 mm 1 mps 670 mmHg 76%
    20:00 +14°C° 0 mm 1 mps 670 mmHg 79%
    21:00 +13°C° 0 mm 1 mps 670 mmHg 82%
    22:00 +12°C° 0 mm 1 mps 670 mmHg 82%
    23:00 +12°C° 0 mm 1 mps 670 mmHg 83%

    Tomorrow, 27 May, Wednesday

    Time Temperature Precipitation Wind Pressure Humidity
    00:00 +11°C° 0 mm 1 mps 670 mmHg 83%
    01:00 +11°C° 0 mm 1 mps 669 mmHg 82%
    02:00 +11°C° 0 mm 1 mps 669 mmHg 81%
    03:00 +10°C° 0 mm 1 mps 669 mmHg 80%
    04:00 +11°C° 0 mm 1 mps 670 mmHg 77%
    05:00 +12°C° 0 mm 1 mps 670 mmHg 75%
    06:00 +13°C° 0 mm 1 mps 671 mmHg 73%
    07:00 +15°C° 0 mm 2 mps 671 mmHg 69%
    08:00 +16°C° 0 mm 2 mps 671 mmHg 66%
    09:00 +17°C° 0 mm 3 mps 671 mmHg 63%
    10:00 +18°C° 0 mm 3 mps 671 mmHg 62%
    11:00 +19°C° 0 mm 3 mps 671 mmHg 61%
    12:00 +20°C° 0 mm 4 mps 671 mmHg 60%
    13:00 +20°C° 0 mm 4 mps 671 mmHg 61%
    14:00 +20°C° 0 mm 3 mps 671 mmHg 63%
    15:00 +20°C° 0 mm 3 mps 671 mmHg 64%
    16:00 +19°C° 0 mm 3 mps 670 mmHg 67%
    17:00 +18°C° 0 mm 2 mps 670 mmHg 71%
    18:00 +17°C° 0 mm 2 mps 670 mmHg 75%
    19:00 +16°C° 0 mm 1 mps 669 mmHg 78%
    20:00 +14°C° 0 mm 1 mps 669 mmHg 81%
    21:00 +13°C° 0 mm 1 mps 669 mmHg 84%
    22:00 +13°C° 0 mm 1 mps 669 mmHg 82%
    23:00 +13°C° 0 mm 1 mps 668 mmHg 80%

    Day after tomorrow, 28 May, Thursday

    Time Temperature Precipitation Wind Pressure Humidity
    00:00 +13°C° 0 mm 1 mps 668 mmHg 78%
    01:00 +13°C° 0 mm 1 mps 668 mmHg 75%
    02:00 +12°C° 0 mm 1 mps 668 mmHg 72%
    03:00 +12°C° 0 mm 1 mps 667 mmHg 69%
    04:00 +13°C° 0 mm 1 mps 668 mmHg 67%
    05:00 +15°C° 0 mm 1 mps 668 mmHg 65%
    06:00 +16°C° 0 mm 1 mps 668 mmHg 62%
    07:00 +19°C° 0 mm 1 mps 668 mmHg 58%
    08:00 +20°C° 0 mm 1 mps 668 mmHg 54%
    09:00 +21°C° 0 mm 2 mps 669 mmHg 49%
    10:00 +23°C° 0 mm 2 mps 668 mmHg 50%
    11:00 +24°C° 0 mm 2 mps 668 mmHg 50%
    12:00 +24°C° 0 mm 3 mps 668 mmHg 51%
    13:00 +24°C° 0 mm 3 mps 668 mmHg 52%
    14:00 +24°C° 0 mm 2 mps 668 mmHg 54%
    15:00 +23°C° 0 mm 2 mps 667 mmHg 55%
    16:00 +23°C° 0 mm 2 mps 667 mmHg 60%
    17:00 +22°C° 0 mm 1 mps 666 mmHg 65%
    18:00 +21°C° 0 mm 1 mps 666 mmHg 70%
    19:00 +19°C° 0 mm 1 mps 666 mmHg 72%
    20:00 +18°C° 0 mm 1 mps 665 mmHg 74%
    21:00 +15°C° 0 mm 1 mps 665 mmHg 77%
    22:00 +15°C° 0 mm 1 mps 665 mmHg 75%
    23:00 +15°C° 0 mm 1 mps 665 mmHg 73%

    29 May, Friday

    Time Temperature Precipitation Wind Pressure Humidity
    00:00 +15°C° 0 mm 1 mps 664 mmHg 71%
    01:00 +15°C° 0 mm 1 mps 664 mmHg 67%
    02:00 +14°C° 0 mm 1 mps 664 mmHg 62%
    03:00 +14°C° 0 mm 1 mps 663 mmHg 58%
    04:00 +16°C° 0 mm 1 mps 664 mmHg 56%
    05:00 +18°C° 0 mm 1 mps 664 mmHg 54%
    06:00 +19°C° 0 mm 1 mps 664 mmHg 53%
    07:00 +21°C° 0 mm 1 mps 664 mmHg 49%
    08:00 +23°C° 0 mm 1 mps 665 mmHg 44%
    09:00 +25°C° 0 mm 1 mps 665 mmHg 40%
    10:00 +26°C° 0 mm 2 mps 665 mmHg 41%
    11:00 +26°C° 0 mm 2 mps 665 mmHg 41%
    12:00 +27°C° 0 mm 2 mps 665 mmHg 41%
    13:00 +27°C° 0 mm 2 mps 664 mmHg 44%
    14:00 +26°C° 0 mm 2 mps 664 mmHg 47%
    15:00 +26°C° 0 mm 2 mps 663 mmHg 50%
    16:00 +25°C° 0 mm 2 mps 662 mmHg 56%
    17:00 +24°C° 0 mm 1 mps 662 mmHg 61%
    18:00 +23°C° 0 mm 1 mps 661 mmHg 66%
    19:00 +22°C° 0 mm 1 mps 661 mmHg 64%
    20:00 +20°C° 0 mm 1 mps 661 mmHg 62%
    21:00 +18°C° 0 mm 2 mps 660 mmHg 60%
    22:00 +18°C° 0 mm 2 mps 660 mmHg 58%
    23:00 +18°C° 0 mm 2 mps 660 mmHg 56%

    30 May, Saturday

    Time Temperature Precipitation Wind Pressure Humidity
    00:00 +17°C° 0 mm 2 mps 659 mmHg 54%
    01:00 +16°C° 0 mm 2 mps 659 mmHg 57%
    02:00 +16°C° 0 mm 1 mps 659 mmHg 60%
    03:00 +15°C° 0 mm 1 mps 659 mmHg 62%
    04:00 +16°C° 0 mm 1 mps 659 mmHg 62%
    05:00 +18°C° 0 mm 1 mps 660 mmHg 63%
    06:00 +19°C° 0 mm 1 mps 661 mmHg 63%
    07:00 +20°C° 0 mm 2 mps 662 mmHg 60%
    08:00 +21°C° 0 mm 2 mps 662 mmHg 58%
    09:00 +22°C° 0 mm 3 mps 663 mmHg 56%
    10:00 +21°C° 0.1 mm 3 mps 664 mmHg 60%
    11:00 +21°C° 0.1 mm 4 mps 664 mmHg 65%
    12:00 +20°C° 0.1 mm 4 mps 664 mmHg 70%
    13:00 +19°C° 0.1 mm 4 mps 664 mmHg 71%
    14:00 +18°C° 0.1 mm 4 mps 664 mmHg 72%
    15:00 +18°C° 0.1 mm 4 mps 664 mmHg 74%
    16:00 +17°C° 0 mm 3 mps 664 mmHg 75%
    17:00 +17°C° 0 mm 2 mps 665 mmHg 76%
    18:00 +16°C° 0 mm 2 mps 665 mmHg 78%
    19:00 +15°C° 0 mm 1 mps 665 mmHg 80%
    20:00 +15°C° 0 mm 1 mps 665 mmHg 81%
    21:00 +14°C° 0 mm 1 mps 665 mmHg 83%
    22:00 +13°C° 0 mm 1 mps 666 mmHg 82%
    23:00 +12°C° 0 mm 1 mps 666 mmHg 81%

    31 May, Sunday

    Time Temperature Precipitation Wind Pressure Humidity
    00:00 +12°C° 0 mm 1 mps 666 mmHg 81%
    01:00 +12°C° 0 mm 1 mps 666 mmHg 81%
    02:00 +11°C° 0 mm 1 mps 666 mmHg 81%
    03:00 +11°C° 0 mm 1 mps 666 mmHg 81%
    04:00 +12°C° 0 mm 1 mps 667 mmHg 79%
    05:00 +13°C° 0 mm 2 mps 667 mmHg 77%
    06:00 +13°C° 0 mm 2 mps 668 mmHg 76%
    07:00 +14°C° 0 mm 2 mps 668 mmHg 73%
    08:00 +15°C° 0 mm 2 mps 668 mmHg 71%
    09:00 +16°C° 0 mm 3 mps 668 mmHg 69%
    10:00 +16°C° 0 mm 3 mps 668 mmHg 68%
    11:00 +16°C° 0 mm 3 mps 668 mmHg 67%
    12:00 +17°C° 0 mm 3 mps 668 mmHg 65%
    13:00 +17°C° 0 mm 3 mps 668 mmHg 65%
    14:00 +17°C° 0 mm 3 mps 668 mmHg 65%
    15:00 +17°C° 0 mm 3 mps 667 mmHg 64%
    16:00 +16°C° 0 mm 3 mps 667 mmHg 67%
    17:00 +16°C° 0 mm 2 mps 667 mmHg 70%
    18:00 +15°C° 0 mm 2 mps 667 mmHg 73%
    19:00 +14°C° 0 mm 1 mps 666 mmHg 77%
    20:00 +12°C° 0 mm 1 mps 666 mmHg 80%
    21:00 +11°C° 0 mm 1 mps 666 mmHg 84%
    22:00 +11°C° 0 mm 1 mps 666 mmHg 84%
    23:00 +11°C° 0 mm 1 mps 666 mmHg 83%
    Show more